Home   Weather   Trujillo   Past weeks

Flag for Peru Past Weather in Trujillo, La Libertad, Peru — Yesterday and Last 2 Weeks

Now
72 °F

Sunny.


Feels Like: 74 °F
Forecast: 63 / 81 °F
Wind: 10 mph from South

Location: Trujillo Airport

Current Time: Sep 28, 2016 at 12:14:36 PM

Latest Report: Sep 28, 2016 at 12:00 PM


Visibility: 10 mi

Pressure: 29.98 "Hg

Humidity: 73%

Dew Point: 63 °F

Location of TrujilloLocation

Past Weather in Trujillo — Graph

°F

Trujillo Temperature Yesterday

Maximum temperature yesterday: 73 °F (at 11:00 AM)
Minimum temperature yesterday: 63 °F (at 6:00 AM)
Average temperature yesterday: 67 °F

High & Low Weather Summary for the Past Weeks

 TemperatureHumidityPressure
High73 °F (Sep 14, 12:00 PM)94% (Sep 13, 11:00 PM)30.07 "Hg (Sep 13, 11:00 PM)
Low61 °F (Sep 14, 6:00 AM)65% (Sep 16, 3:00 PM)29.80 "Hg (Sep 19, 3:00 PM)
Average66 °F82%29.93 "Hg
* Reported Sep 13 11:00 AM — Sep 28 11:00 AM, Trujillo, Weather by CustomWeather, © 2016

Note: Actual official high and low records may vary slightly from our data, if they occured in-between our weather recording intervals... More about our weather records

Advertising

Trujillo Weather History for the Previous 24 Hours

Scroll right to see more
 ConditionsComfort  
Time TempWeatherWind HumidityBarometerVisibility
11:00 AM
Wed, Sep 28
70 °FClear.9 mph73%29.98 "Hg6 mi
10:00 AM70 °FPassing clouds.12 mph78%30.01 "Hg5 mi
9:00 AM66 °FClear.12 mph83%30.01 "Hg4 mi
8:00 AM64 °FClear.10 mph83%30.01 "Hg4 mi
7:00 AM64 °FClear.8 mph83%29.98 "Hg4 mi
6:00 AM64 °FPassing clouds.7 mph83%29.95 "Hg4 mi
5:00 AM64 °FOvercast.7 mph83%29.92 "Hg5 mi
4:00 AM64 °FOvercast.7 mph83%29.92 "Hg4 mi
3:00 AM64 °FOvercast.7 mph83%29.92 "Hg4 mi
2:00 AM64 °FOvercast.6 mph83%29.95 "Hg4 mi
1:00 AM64 °FOvercast.6 mph83%29.95 "Hg4 mi
12:00 AM64 °FOvercast.8 mph83%29.95 "Hg4 mi
11:00 PM
Tue, Sep 27
64 °FOvercast.7 mph83%29.95 "Hg4 mi
10:00 PM64 °FFog.7 mph83%29.95 "Hg3 mi
9:00 PM64 °FOvercast.7 mph83%29.95 "Hg4 mi
8:00 PM66 °FPartly cloudy.7 mph83%29.92 "Hg4 mi
7:00 PM66 °FPassing clouds.8 mph83%29.89 "Hg4 mi
6:00 PM68 °FScattered clouds.9 mph78%29.86 "Hg5 mi
5:00 PM68 °FPartly sunny.10 mph78%29.86 "Hg6 mi
4:00 PM72 °FScattered clouds.10 mph69%29.86 "HgN/A
3:00 PM73 °FScattered clouds.13 mph69%29.86 "Hg6 mi
2:00 PM73 °FSunny.9 mph69%29.92 "Hg10 mi
1:00 PM73 °FPassing clouds.10 mph69%29.92 "Hg6 mi
12:00 PM73 °FPassing clouds.13 mph65%29.95 "Hg5 mi
Weather by CustomWeather, © 2016

See weather overviewHow to use our weather pages